Weather in Murzanayevo

Russia / Mari El Republic     56°44′22″N   49°14′58″E
temp.,
°C
wind,
m/s
gust,
m/s
humid.,
%
clouds,
%
prec.,
mm/h
press.,
hPa
HPBL,
m
3 march, wed
wed300:00−6w499579 0.0 998175
03:00−6wsw369776 0.1 999131
06:00−4w51095100 0.2 998422
09:00−5nw61093100 0.4 1000590
12:00−5nw71191100 0.3 1001668
15:00−5nw71087100 0.4 1002780
18:00−6wnw61191100 0.1 1003679
21:00−7wnw51091100 0.3 1003717
4 march, thu
thu400:00−9sw4893100 0.1 1001189
03:00−7sw51293100 0.6 1000460
06:00−5wsw5119499 0.3 997479
09:00−4sw61193100 0.4 995671
12:00−1wsw71191100 0.6 992965
15:00−2wnw81382100 1.9 9911133
18:00−4w7148931 0.1 992716
21:00−6w7139255 0.1 996420
5 march, fri
fri500:00−8wnw489697 0.0 997188
03:00−12wnw339790 0.1 99945
06:00−14nw239772 0.0 100122
09:00−13nnw359570 0.0 1002161
12:00−11nnw359099 0.0 1003292
15:00−11nw478966 0.0 1005446
18:00−16nw349537 0.0 100762
21:00−16wnw349654 0.0 101064
6 march, sat
sat600:00−17wnw349643 0.0 101141
03:00−17wsw349833 0.0 101254
06:00−17sw349972 0.0 101275
09:00−13wsw479574 0.0 1011249
12:00−9wsw479198 0.1 1011545
15:00−9wnw469099 0.3 1010611
18:00−15nnw349584 0.1 101058
21:00−18wnw349443 0.1 101130
7 march, sun
sun700:00−19wsw34960 0.0 101136
03:00−19wsw469928 0.0 101190
06:00−19sw3610079 0.0 1010103
09:00−15sw499686 0.1 1009276
12:00−10ssw6118598 0.0 1007654
15:00−10s7129099 0.0 1004683
18:00−10s71592100 0.2 1002811
21:00−8s81594100 1.1 9971030